#timestamp,LO_Frequency,Hit,StdDev 
1628208015.7,286046990.1,P
1628208035.5,286046988.6,P
1628208055.4,286046989.7,Y
1628208075.2,286046995.2,P
1628208095.0,286046993.8,N
1628208095.9,286046993.8,P
1628208115.8,286046995.8,N
1628208135.6,286046995.7,N
1628208155.5,286046995.9,N
1628208175.3,286046994.2,Y
1628208195.1,286046998.0,P
1628208215.9,286046991.8,P
1628208235.7,286046992.2,P
1628208255.6,286046989.0,Y
1628208275.4,286046994.6,P
1628208295.2,286046993.2,P
1628208315.1,286046991.8,P
1628208316.0,286046991.8,Y
1628208335.8,286046998.6,P
1628208355.7,286047000.3,N
1628208375.5,286046999.9,N
1628208395.3,286047000.2,N
1628208415.2,286047000.8,N
1628208435.0,286046996.6,N
1628208435.9,286046996.6,N
1628208455.8,286046993.3,N
1628208475.6,286046994.7,N
1628208495.4,286046991.9,N
1628208515.3,286046988.7,Y
1628208535.1,286046988.8,P
1628208555.9,286046983.8,P
1628208575.7,286046986.4,N
1628208595.5,286046985.0,Y
1628208615.4,286046998.0,P
1628208635.2,286046998.8,N
1628208655.1,286047000.1,N
1628208656.0,286047000.1,N
1628208675.8,286047001.9,N
1628208695.6,286047003.6,N
1628208715.5,286047001.8,N
1628208735.3,286047002.2,N
1628208755.1,286047000.0,N
1628208775.9,286047001.9,N
1628208795.7,286047001.3,N
1628208815.6,286047000.6,N
1628208835.4,286046997.7,N
1628208855.2,286046995.7,N
1628208875.1,286046996.3,N
1628208876.0,286046996.3,N
1628208895.8,286046994.7,N
1628208915.6,286046996.3,N
1628208935.5,286046993.4,N
1628208955.3,286046994.0,N
1628208975.2,286046992.6,N
1628208995.9,286046994.2,N
1628209015.7,286046992.6,N
1628209035.6,286046992.0,N
1628209055.4,286046993.2,N
1628209075.2,286046992.9,N
1628209095.1,286046993.2,N
1628209096.0,286046993.2,N
1628209115.8,286046993.1,N
1628209135.7,286046992.4,N
1628209155.5,286046993.5,N
1628209175.3,286046997.2,N
1628209195.2,286046998.0,N
1628209215.9,286046997.2,N
1628209235.7,286046999.5,N
1628209255.6,286046998.3,N
1628209275.4,286047000.8,N
1628209295.2,286046999.1,N
1628209315.1,286046999.0,N
1628209316.0,286046999.0,N
1628209335.8,286046995.1,N
1628209355.7,286046995.6,N
1628209375.5,286046996.3,N
1628209395.3,286046994.3,N
1628209415.2,286046993.1,N
1628209435.0,286046993.5,N
1628209435.9,286046993.5,N
1628209455.8,286046993.5,N
1628209475.6,286046995.3,N
1628209495.4,286046998.1,N
1628209515.3,286047000.8,N
1628209535.1,286047000.1,N
1628209555.8,286047003.8,N
1628209575.7,286047008.1,N
1628209595.5,286047011.3,Y
1628209615.4,286047016.5,P
1628209635.2,286047017.6,N
1628209655.0,286047019.7,N
1628209655.9,286047019.7,N
1628209675.8,286047020.4,N
1628209695.6,286047018.2,N
1628209715.4,286047017.3,N
1628209735.3,286047019.9,N
1628209755.1,286047018.4,N
1628209775.9,286047015.8,N
1628209795.7,286047011.6,N
1628209815.5,286047007.0,N
1628209835.4,286046999.8,N
1628209855.2,286047000.5,N
1628209875.0,286046998.7,N
1628209875.9,286046998.7,N
1628209895.8,286046999.2,N
1628209915.6,286047000.6,N
1628209935.5,286047004.3,N
1628209955.3,286047006.4,N
1628209975.1,286047012.4,N
1628209995.9,286047013.9,N
1628210015.7,286047013.1,N
1628210035.5,286047013.7,N
1628210055.4,286047013.8,N
1628210075.2,286047012.7,N
1628210095.1,286047012.3,N
1628210096.0,286047012.3,N
1628210115.8,286047006.6,N
1628210135.6,286047007.2,N
1628210155.5,286047005.5,N
1628210175.3,286047004.1,N
1628210195.1,286047004.0,N
1628210215.9,286047002.3,N
1628210235.7,286046999.7,N
1628210255.6,286047000.2,N
1628210275.4,286047000.5,N
1628210295.2,286046999.8,N
1628210315.1,286047002.1,N
1628210316.0,286047002.1,N
1628210335.8,286047001.0,N
1628210355.7,286047000.0,N
1628210375.5,286047002.4,N
1628210395.3,286047000.1,N
1628210415.2,286046999.8,N
1628210435.0,286046995.4,N
1628210435.9,286046995.4,N
1628210455.7,286046996.0,N
1628210475.6,286046997.4,N
1628210495.4,286046998.5,N
1628210515.3,286046999.0,N
1628210535.1,286047002.5,N
1628210555.8,286047001.9,N
1628210575.7,286047002.1,N
1628210595.5,286047002.0,N
1628210615.4,286047001.7,N
1628210635.2,286047004.4,N
1628210655.0,286046999.7,N
1628210655.9,286046999.7,N
1628210675.8,286047002.8,N
1628210695.6,286047000.0,N
1628210715.4,286047000.4,N
1628210735.3,286047002.4,N
1628210755.1,286047004.2,N
1628210775.9,286047007.4,Y
1628210795.7,286047006.3,P
1628210815.5,286047009.0,P
1628210835.4,286047007.1,N
1628210855.2,286047003.4,N
1628210875.0,286047004.7,N
1628210875.9,286047004.7,N
1628210895.8,286047007.1,N
1628210915.6,286047006.8,N
1628210935.5,286047010.6,Y
1628210955.3,286047005.9,P
1628210975.1,286047003.2,P
1628210995.9,286047005.2,P
1628211015.7,286047003.0,N
1628211035.5,286047003.6,N
1628211055.4,286047004.1,Y
1628211075.2,286046999.4,P
1628211095.1,286047002.6,N
1628211096.0,286047002.6,N
1628211115.8,286047003.3,N
1628211135.6,286047006.8,Y
1628211155.5,286047005.0,P
1628211175.3,286047010.8,P
1628211195.2,286047011.8,P
1628211215.9,286047009.7,N
1628211235.7,286047008.0,N
1628211255.6,286047008.4,N
1628211275.4,286047007.7,N
1628211295.3,286047009.5,Y
1628211315.1,286047000.1,P
1628211335.9,286046999.5,N
1628211355.7,286046998.0,N
1628211375.5,286047011.9,Y
1628211395.4,286046995.1,P
1628211415.2,286046996.2,N
1628211435.0,286046995.9,N
1628211435.9,286046995.9,N
1628211455.8,286046994.4,N
1628211475.6,286046993.1,Y
1628211495.5,286046994.4,P
1628211515.3,286046990.4,P
1628211535.1,286046990.8,P
1628211555.9,286046989.4,Y
1628211575.7,286046994.6,P
1628211595.5,286046992.5,P
